Wind_Speed
14 16 15 12 10 14 20 20 15 22 18 12 13 14 12 9 4 3 13 14 10 11 13 11 9 7 9 8 10 10 12 13 15 16 15 16 17 18 17 17 18 20 20 22
13 11 13 13 11 13 24 21 20 23 20 21 16 14 8 11 11 9 9 20 16 19 15 13 14 9 10 11 9 9 10 10 10 12 14 14 13 15 15 15 17 15 21 19
14 12 15 17 16 25 21 10 20 21 22 21 20 22 14 12 14 16 13 11 22 16 19 15 12 13 11 11 11 10 10 10 11 12 12 13 13 14 14 14 11 14 17 18
12 13 16 17 20 23 13 27 28 29 19 18 14 12 15 10 11 16 13 12 15 23 27 20 11 11 12 12 12 12 11 13 13 11 10 10 12 13 15 15 13 13 17 20
5 11 20 22 18 19 17 27 25 19 24 15 14 17 20 12 14 14 9 10 28 23 19 17 14 13 12 13 13 14 16 16 14 13 11 9 11 11 12 13 14 13 15 19
9 9 16 14 15 15 15 21 25 24 12 9 8 15 28 26 20 13 9 6 20 25 21 23 23 14 14 14 14 13 17 18 17 15 13 10 8 10 9 10 12 14 13 15
6 6 7 8 14 16 20 17 10 9 11 14 17 21 33 23 16 2 11 9 20 23 21 22 13 16 16 16 15 16 17 19 18 17 14 13 9 10 8 8 7 9 12 16
10 14 23 7 12 13 12 15 13 12 25 24 26 21 18 22 22 15 8 14 17 24 23 17 19 22 16 18 18 18 18 20 20 20 17 16 15 12 7 7 8 8 7 8
1 10 20 13 9 14 11 13 17 18 13 15 17 22 19 22 20 18 12 15 21 26 28 28 28 23 18 24 23 20 20 20 22 21 20 19 17 15 14 14 13 13 11 9
10 6 9 12 6 10 18 13 14 14 17 20 16 24 26 14 14 20 23 16 21 22 29 28 27 27 26 24 24 24 23 22 22 23 23 22 21 19 18 17 16 14 14 14
11 9 15 11 8 12 14 19 24 25 28 19 28 26 21 17 13 8 16 17 9 19 23 28 28 25 18 26 26 26 26 25 23 23 23 24 24 23 22 20 15 19 16 15
11 11 13 10 16 9 11 25 25 37 40 24 29 22 6 11 20 29 25 18 11 21 24 28 29 33 28 30 29 30 28 29 26 25 25 25 24 23 23 21 21 20 20 17
18 10 3 15 19 20 17 19 31 28 23 29 7 16 25 18 7 17 21 22 20 23 24 28 30 38 36 39 35 33 32 29 29 28 28 27 27 25 24 21 19 17 18 19
12 19 20 13 27 19 18 15 13 25 20 28 30 28 13 32 14 24 24 29 21 24 27 24 32 42 38 46 37 38 36 35 34 31 30 29 28 27 26 24 22 22 23 22
16 19 21 10 24 18 12 17 21 11 24 32 31 31 29 23 27 23 22 24 23 19 22 26 25 40 56 47 43 37 37 37 40 36 34 32 30 29 29 27 25 25 24 23
16 17 19 20 16 12 16 7 19 22 29 23 25 32 24 29 21 11 14 16 24 20 17 18 23 35 39 61 55 42 42 32 46 42 36 35 34 32 30 29 28 26 26 27
17 17 22 14 16 26 25 16 26 14 18 28 28 37 35 24 11 9 15 19 23 22 25 19 23 20 32 21 47 37 42 38 27 29 34 37 36 35 33 32 31 30 30 30
19 23 18 19 19 20 20 27 24 20 20 16 26 31 26 34 28 21 18 23 26 27 29 32 28 19 19 27 21 46 51 49 43 39 38 42 40 39 36 35 33 34 33 33
21 22 19 14 14 15 25 18 24 33 19 32 27 29 24 33 24 23 22 22 27 28 30 32 32 29 26 13 15 20 34 46 53 52 45 46 43 42 39 38 37 38 38 37
22 24 22 17 14 15 27 26 17 25 23 31 36 30 29 8 13 16 23 25 26 28 33 35 32 29 31 28 27 18 19 15 32 59 57 50 46 42 41 42 44 45 44 42
22 19 23 17 17 17 26 26 26 24 24 27 31 21 22 28 30 27 30 29 29 31 31 36 35 29 29 28 29 23 28 31 15 29 53 53 49 50 49 51 51 51 48 48
18 13 16 17 18 24 28 29 29 28 26 29 34 38 33 23 27 27 28 33 33 31 34 35 37 34 31 32 30 28 29 32 32 30 22 53 58 51 53 49 51 53 43 48
17 16 19 25 27 29 34 38 36 25 26 30 31 34 28 29 26 26 28 30 30 35 35 36 38 37 35 32 34 27 26 24 30 35 26 9 27 60 58 55 56 50 47 49
19 25 22 26 27 31 31 27 26 30 31 31 28 31 29 29 26 26 25 24 25 28 31 35 38 40 37 35 34 28 25 27 23 31 35 32 20 20 44 47 44 46 37 35
22 18 18 22 31 35 28 29 31 29 31 28 24 25 23 26 26 25 24 23 21 24 25 25 28 34 35 37 35 32 29 29 30 29 27 26 29 27 18 17 14 14 16 18
18 26 24 26 15 16 17 16 20 21 24 25 24 23 22 22 19 20 19 21 20 20 20 18 21 25 27 32 33 33 33 32 31 28 28 26 29 26 24 22 23 24 25 27
Wind_Direction
224 225 223 215 166 239 242 224 230 243 274 271 275 289 296 298 326 289 232 217 204 202 205 179 172 165 148 142 150 153 160 164 166 162 162 159 164 173 176 182 177 173 171 159
226 228 224 205 178 252 246 235 242 270 244 274 275 269 300 299 281 279 267 218 215 204 193 185 162 174 169 157 166 165 169 167 162 160 153 147 150 158 163 181 166 172 171 163
227 220 225 207 200 207 241 260 253 249 268 261 271 272 276 295 292 283 294 316 211 201 203 202 176 166 187 171 177 185 182 184 175 173 167 160 151 146 150 159 184 170 159 168
232 205 245 220 215 223 179 230 244 248 249 261 255 294 276 266 274 280 283 283 207 199 200 184 195 180 175 186 181 183 196 192 190 182 180 171 161 156 149 148 157 167 172 176
245 219 238 230 229 215 220 233 246 255 259 262 288 290 285 278 274 265 254 291 184 197 211 189 198 196 191 186 191 189 191 193 193 188 180 177 170 158 157 158 150 157 171 169
263 258 261 248 216 199 233 238 238 245 321 269 262 255 268 265 274 291 234 198 183 196 187 197 195 214 193 201 189 195 191 192 193 191 193 195 177 157 144 141 153 158 170 179
333 349 352 227 212 223 223 221 257 277 268 240 231 234 244 259 254 320 245 213 201 198 197 198 182 215 212 208 201 198 197 195 194 194 197 196 186 172 165 157 163 158 176 183
327 307 308 279 225 210 228 226 211 258 251 236 226 235 269 262 260 244 251 233 201 213 203 198 198 202 223 217 209 205 207 201 199 200 199 195 194 192 186 193 196 189 189 190
197 274 277 306 228 220 203 269 196 253 284 267 239 226 235 238 252 253 245 236 216 218 217 214 206 206 215 223 214 209 211 212 208 208 207 204 202 196 202 207 199 203 198 205
166 220 221 279 241 221 195 221 225 256 274 275 245 242 233 228 184 231 231 217 222 225 215 215 217 208 211 217 220 214 214 214 216 213 216 212 208 207 211 210 208 210 204 198
191 189 285 254 238 230 232 219 213 217 222 225 252 245 233 156 182 136 222 233 244 224 211 226 225 223 216 222 223 226 220 217 216 220 218 220 217 215 216 215 205 215 207 206
207 218 269 279 265 228 237 245 234 219 214 225 244 257 191 236 218 204 223 203 171 240 229 226 225 215 214 242 220 228 226 223 215 218 222 221 220 217 223 220 218 219 212 208
231 186 250 266 247 215 221 228 227 235 240 246 272 301 266 205 169 186 197 207 221 236 236 234 234 220 215 226 223 224 226 228 226 217 221 225 223 221 223 227 229 230 231 228
244 204 187 277 282 298 245 266 226 221 259 254 265 268 300 249 209 193 204 211 212 226 236 240 230 212 204 209 230 224 225 225 225 226 224 224 229 228 226 223 222 228 232 233
232 224 208 274 280 296 305 294 255 233 241 215 257 260 261 275 272 246 229 215 220 226 232 232 239 218 212 227 227 215 221 231 230 224 224 227 228 232 234 234 232 231 236 240
248 237 247 236 252 288 250 271 268 282 253 238 235 266 251 256 255 244 246 243 226 237 240 235 212 212 225 231 229 223 209 202 238 235 229 227 230 230 233 236 238 237 237 240
245 228 232 232 234 236 257 219 245 260 315 296 270 260 265 265 204 260 259 251 238 255 258 261 262 267 244 251 212 210 217 217 197 211 236 236 230 233 233 234 237 240 242 244
256 256 248 243 236 252 251 239 240 238 220 297 265 267 282 291 267 269 259 251 249 241 254 261 264 276 282 282 246 234 229 227 235 220 214 229 236 237 237 238 239 241 242 244
246 256 253 243 262 277 284 281 240 230 234 250 273 273 283 257 263 240 244 245 247 251 253 259 270 271 263 282 238 268 236 234 236 239 240 239 238 240 240 241 242 244 244 245
243 245 248 238 223 231 269 264 272 253 247 251 258 265 228 40 299 255 249 246 248 251 258 262 270 277 281 287 281 271 243 248 239 234 233 238 235 238 242 249 248 246 245 247
256 245 246 242 242 247 248 254 265 242 244 259 269 255 232 269 272 265 253 250 248 248 253 262 269 276 282 287 287 291 292 301 288 251 235 233 242 243 249 246 254 248 246 251
253 262 255 258 235 246 256 260 262 254 259 267 267 273 284 270 264 259 255 247 252 252 249 253 260 267 270 273 281 280 279 288 304 293 244 241 239 244 244 253 255 248 246 253
229 228 227 235 233 236 245 249 250 277 269 263 265 270 273 275 266 260 258 253 253 256 255 252 255 259 265 267 269 274 274 277 289 298 299 309 232 236 242 245 252 256 256 252
236 246 240 245 243 243 253 248 270 277 269 268 263 264 269 270 268 267 265 261 256 258 255 256 254 254 254 260 264 263 265 271 265 279 289 300 301 256 235 247 254 244 244 242
252 237 266 255 245 244 261 261 260 261 258 260 259 260 262 264 267 265 263 263 260 252 256 257 253 246 247 249 254 256 257 262 272 277 284 285 292 295 300 285 280 269 284 266
255 262 257 262 270 227 257 251 254 253 255 256 257 257 257 259 262 266 259 254 252 245 248 250 251 248 247 247 247 249 253 258 262 265 266 264 271 278 280 271 270 266 262 264
Height
5861 5863 5866 5869 5872 5876 5877 5878 5879 5876 5878 5878 5880 5883 5883 5884 5885 5886 5887 5889 5889 5890 5892 5892 5893 5895 5896 5898 5898 5901 5903 5904 5907 5908 5910 5910 5912 5915 5919 5918 5922 5924 5926 5927
5859 5862 5864 5867 5873 5877 5875 5877 5877 5875 5879 5878 5879 5881 5882 5882 5884 5884 5886 5886 5886 5889 5890 5891 5892 5896 5898 5899 5901 5903 5904 5906 5908 5909 5911 5912 5914 5916 5919 5917 5924 5926 5929 5926
5856 5860 5861 5863 5869 5871 5875 5874 5873 5874 5876 5876 5877 5878 5880 5881 5881 5881 5883 5883 5884 5886 5888 5891 5892 5894 5899 5900 5902 5904 5905 5907 5909 5911 5913 5914 5915 5918 5921 5921 5919 5923 5924 5925
5853 5856 5859 5861 5865 5869 5873 5870 5866 5869 5874 5874 5877 5876 5877 5879 5879 5878 5880 5881 5884 5884 5884 5887 5891 5894 5900 5900 5902 5904 5906 5908 5910 5912 5913 5915 5917 5920 5922 5924 5925 5922 5925 5930
5852 5853 5854 5855 5859 5863 5870 5866 5868 5871 5871 5874 5877 5877 5873 5873 5876 5876 5876 5876 5878 5881 5882 5885 5889 5894 5897 5902 5903 5905 5907 5909 5911 5913 5915 5917 5919 5920 5923 5925 5926 5926 5926 5931
5849 5850 5850 5852 5855 5859 5866 5865 5866 5867 5868 5871 5876 5878 5870 5872 5875 5876 5876 5875 5879 5883 5884 5886 5887 5891 5895 5900 5903 5905 5907 5909 5912 5913 5915 5916 5920 5922 5924 5926 5927 5928 5928 5929
5849 5849 5849 5850 5853 5857 5859 5862 5867 5869 5870 5870 5868 5872 5869 5869 5872 5874 5875 5875 5878 5883 5886 5885 5885 5891 5893 5898 5901 5904 5907 5910 5912 5914 5915 5917 5920 5923 5925 5927 5930 5931 5931 5931
5855 5851 5848 5851 5851 5856 5858 5860 5864 5864 5863 5864 5865 5865 5864 5866 5868 5873 5872 5874 5877 5881 5883 5884 5888 5890 5893 5896 5899 5902 5906 5908 5911 5913 5915 5917 5920 5922 5925 5928 5930 5931 5933 5935
5854 5854 5848 5849 5850 5852 5856 5858 5862 5861 5861 5861 5860 5862 5861 5862 5866 5867 5869 5871 5874 5877 5881 5882 5885 5888 5887 5894 5897 5899 5903 5907 5909 5912 5914 5917 5919 5922 5923 5924 5927 5928 5931 5934
5849 5851 5849 5848 5848 5851 5852 5855 5858 5861 5861 5859 5850 5854 5858 5861 5854 5858 5863 5869 5869 5873 5877 5881 5880 5886 5889 5891 5895 5898 5900 5903 5907 5909 5912 5916 5918 5920 5920 5924 5926 5929 5931 5931
5844 5849 5851 5849 5847 5850 5851 5851 5850 5848 5849 5850 5849 5849 5851 5841 5842 5845 5858 5861 5867 5869 5872 5877 5879 5882 5888 5890 5892 5896 5899 5901 5904 5907 5910 5913 5916 5917 5918 5921 5926 5928 5929 5928
5843 5843 5845 5846 5842 5846 5845 5844 5847 5843 5844 5847 5847 5844 5846 5850 5848 5850 5854 5860 5856 5867 5868 5873 5876 5879 5884 5890 5889 5893 5897 5899 5900 5904 5907 5909 5913 5914 5914 5918 5921 5924 5926 5926
5837 5841 5846 5844 5834 5833 5838 5839 5838 5841 5844 5844 5844 5841 5845 5846 5834 5843 5848 5854 5857 5860 5863 5867 5870 5874 5877 5882 5883 5887 5890 5896 5898 5900 5903 5906 5909 5911 5913 5914 5915 5918 5920 5923
5834 5836 5837 5840 5830 5835 5834 5834 5838 5840 5840 5843 5843 5838 5838 5839 5833 5836 5842 5848 5853 5855 5857 5860 5865 5867 5871 5872 5879 5880 5883 5886 5890 5895 5898 5901 5905 5908 5910 5913 5915 5916 5918 5921
5829 5831 5832 5834 5830 5830 5833 5832 5834 5836 5834 5832 5836 5836 5836 5838 5837 5842 5843 5845 5849 5850 5852 5854 5857 5863 5868 5866 5872 5867 5873 5876 5882 5886 5892 5896 5899 5904 5906 5909 5911 5913 5915 5917
5825 5826 5827 5829 5831 5830 5830 5832 5833 5832 5829 5834 5832 5832 5834 5834 5836 5838 5838 5842 5847 5848 5850 5849 5850 5853 5853 5852 5854 5857 5835 5863 5873 5883 5885 5890 5893 5897 5901 5903 5905 5908 5911 5912
5819 5821 5821 5823 5825 5826 5826 5826 5825 5827 5821 5822 5829 5827 5826 5827 5829 5833 5835 5837 5842 5844 5845 5845 5845 5845 5846 5850 5854 5855 5854 5859 5859 5871 5882 5884 5887 5890 5894 5897 5900 5902 5904 5906
5814 5814 5816 5818 5819 5822 5822 5822 5822 5825 5828 5817 5821 5822 5826 5821 5825 5831 5833 5835 5836 5838 5840 5840 5840 5842 5839 5837 5841 5846 5848 5855 5858 5858 5870 5873 5878 5883 5886 5888 5891 5893 5896 5898
5809 5808 5811 5813 5816 5819 5815 5819 5820 5820 5824 5819 5811 5819 5820 5819 5817 5825 5830 5831 5831 5832 5836 5835 5835 5837 5839 5838 5839 5842 5842 5849 5852 5852 5856 5862 5868 5874 5878 5880 5882 5885 5887 5889
5805 5803 5806 5809 5812 5815 5806 5809 5814 5819 5819 5814 5810 5811 5814 5807 5815 5819 5822 5825 5826 5826 5828 5830 5831 5832 5833 5836 5837 5836 5835 5837 5839 5839 5846 5854 5859 5863 5867 5870 5872 5875 5877 5879
5798 5799 5800 5803 5805 5809 5804 5806 5809 5811 5812 5810 5806 5811 5794 5809 5814 5816 5819 5819 5820 5822 5822 5824 5824 5827 5828 5830 5833 5833 5834 5832 5832 5832 5839 5845 5849 5852 5855 5857 5861 5864 5866 5869
5793 5795 5797 5799 5801 5803 5797 5800 5802 5803 5804 5802 5800 5797 5799 5805 5805 5806 5808 5812 5812 5815 5817 5818 5818 5819 5823 5825 5825 5827 5827 5826 5825 5827 5830 5832 5837 5842 5845 5847 5849 5852 5853 5857
5791 5792 5793 5792 5792 5793 5793 5794 5795 5796 5796 5794 5797 5796 5795 5792 5798 5800 5800 5802 5804 5805 5807 5810 5812 5813 5814 5817 5819 5819 5819 5820 5820 5820 5820 5824 5827 5829 5833 5836 5838 5841 5843 5847
5783 5782 5786 5785 5786 5786 5788 5788 5789 5791 5788 5789 5791 5791 5790 5788 5790 5790 5792 5794 5796 5796 5799 5800 5802 5804 5806 5808 5811 5813 5814 5814 5816 5816 5816 5818 5819 5819 5822 5826 5828 5829 5831 5833
5776 5775 5778 5781 5778 5778 5780 5781 5781 5783 5782 5782 5784 5784 5785 5784 5784 5785 5787 5788 5791 5791 5791 5792 5792 5794 5796 5800 5803 5805 5808 5810 5809 5810 5813 5814 5815 5815 5816 5818 5820 5824 5825 5828
5768 5769 5773 5773 5772 5770 5774 5772 5775 5775 5775 5776 5777 5778 5779 5779 5779 5779 5782 5783 5785 5786 5786 5787 5787 5787 5788 5790 5793 5796 5799 5801 5803 5803 5806 5808 5810 5813 5813 5816 5818 5820 5822 5825